Regional Weather Roundup
Issued by NWS Green Bay, WI

Home | Current Version | Previous Version | Text Only | Print | Product List | Glossary On
Versions: 1 2 3 4 5 6 7 8 9 10 11 12 13 14 15 16 17 18 19 20 21 22 23 24 25 26 27 28 29 30 31 32 33 34 35 36 37 38 39 40 41 42 43 44 45 46 47 48 49 50
728
ASUS43 KGRB 200000
RWRGRB

NORTH-CENTRAL AND NORTHEAST WISCONSIN REGIONAL WEATHER ROUNDUP
NATIONAL WEATHER SERVICE GREEN BAY WI
600 PM CST THU JAN 19 2017

WIZ005-009-010>012-018-019-200100-
NORTH CENTRAL WISCONSIN

CITY           SKY/WX    TMP DP  RH WIND       PRES   REMARKS
IRONWOOD       CLEAR     45  34  65 S7        29.77S
MANITOWISH WTR NOT AVBL
ARBOR VITAE    NOT AVBL
EAGLE RIVER    NOT AVBL
LAND O LAKES   NOT AVBL
RHINELANDER    CLEAR     36  32  85 S6        29.82R
PHILLIPS       PTCLDY    36  32  83 S7        29.79R
ANTIGO         NOT AVBL
TOMAHAWK       NOT AVBL
MERRILL        CLOUDY    32  32 100 CALM        N/A  FOG
$$

WIZ013-073-200100-
NORTHEAST WISCONSIN

CITY           SKY/WX    TMP DP  RH WIND       PRES   REMARKS
IRON MOUNTAIN  CLOUDY    32  30  92 SE6       29.84R FOG
MARINETTE      NOT AVBL
$$

WIZ017-030-035>037-045-200100-
CENTRAL WISCONSIN

CITY           SKY/WX    TMP DP  RH WIND       PRES   REMARKS
MEDFORD        NOT AVBL
WAUSAU         CLOUDY    32  31  96 SE8       29.83R FOG
MOSINEE        MOCLDY    32  32 100 E5        29.84S FOG
MARSHFIELD     FOG       32  31  96 E8        29.82R VSB 1/4
WISC RAPIDS    CLEAR     34  32  92 CALM      29.84F
STEVENS POINT  NOT AVBL
WAUPACA        NOT AVBL
SHAWANO        NOT AVBL
CLINTONVILLE   CLOUDY    32  32 100 CALM      29.87S FOG
WAUTOMA        MOCLDY    32  31  96 E3        29.86F FOG
$$

WIZ038-039-048-051-200100-
FOX VALLEY

CITY           SKY/WX    TMP DP  RH WIND       PRES   REMARKS
NWS GREEN BAY  FOG       33  33 100 CALM      29.87F VSB 1/4
APPLETON       FOG       32  32 100 CALM      29.84F VSB 1/2
OSHKOSH        FOG       33  32  96 CALM      29.85F VSB 1/4
FOND DU LAC    FOG       34  32  92 CALM      29.85F VSB 1/4
$$

WIZ022-050-052-200100-
EAST CENTRAL WISCONSIN

CITY           SKY/WX    TMP DP  RH WIND       PRES   REMARKS
EPHRAIM        NOT AVBL
WASHINGTON ISL NOT AVBL
STURGEON BAY   FOG       32  31  96 S7        29.89F VSB 1/2
MANITOWOC      NOT AVBL
SHEBOYGAN      FOG       32  30  92 CALM      29.87F VSB 1/4
$$

LMZ563-521-522-541>543-200100-
LAKESHORE

STATION/POSITION TIME  TEMP    WIND        PRES    VSBY  WAVE
                       AIR SEA DIR/SP/G                  HT/PER
                 (UTC) (F)     (DEG/KT/KT) (MB)    (MI)  (FT/S)
SHEBOYGAN LKSHOR 2300   33     190/  8/  8 1012.2F
KEWAUNEE LKSHORE 2330   33     190/  7/  8 1011.7F
NORTHPORT PIER   2340   33      CALM  /  5 1012.5R
MENOMINEE LKSHOR 2300                      1011.2
$$




USA.gov is the U.S. government's official web portal to all federal, state and local government web resources and services.